COSMOS 2251 DEB, 33920

Orbit data source: Space-Track

COSMOS 2251 DEB, 33920 is space debris in LEO originally from a launch on Wed, 16 Jun 1993 UTC launched from the Plesetsk Missile And Space Complex (PKMTR). The debris from Iridium 33, an American commercial communications satellite, has been tracked extensively since its accidental collision with the defunct Russian satellite Cosmos 2251 in 2009. This event, occurring at high speed in low Earth orbit (LEO), generated thousands of pieces of space debris, significantly increasing the risk of further collisions. The Iridium 33 debris cloud has impacted space traffic management and orbital debris mitigation strategies, making it a subject of ongoing study in space situational awareness.

Loading next visibility...
Identifier
33920, 1993-036DZ
Orbit
LEO
Country
Flag of CISCIS
Related business
Manufacturer
Unknown
Mission
Spacecraft
Bus & Motor
Unknown
Mass
Unknown
Launch date (UTC)
1993-06-16 (33 years ago)
Launch vehicle
Unknown
Launch site
Plesetsk Missile And Space Complex (PKMTR)
Object type
Payload
Rocket body
Debris
Shape & HBR
Unknown shape, 0.1 m
Radar Cross Section
Small (<0.1 m²)

Expand to show TLE details & history
Last TLE update: 7 hours ago

TLE from 7 hours ago
0 COSMOS 2251 DEB
1 33920U 93036DZ  26124.13630197  .00005948  00000-0  12200-2 0  9996
2 33920  74.0622  27.3079 0031580   1.4107 358.7142 14.60598221901927
Epoch: 2026-05-04T03:16Z
TLE epoch observation values (Epoch: 2026-05-04T03:16:16.490Z)
Latitude
-0.00001°
Longitude
116.20936°
Altitude
671.562 km
Speed
7.533 km/s
True Right ascension
01h 49m 13s
True Declination
0° 00' 00"
Sunlit
Object was in daylight at epoch
Visualization orbit readout
Latitude
Unknown
Longitude
Unknown
Altitude
Unknown
Speed
Unknown
Apparent Right ascension
Unknown
Apparent Declination
Unknown
Sunlit
N/A
Visualization observer readout
Local Sidereal Time
17:36:39
Azimuth
Unknown
Elevation
Unknown
Doppler factor
Unknown
Orbital elements
Apogee altitude
711.155 km
Perigee altitude
666.52 km
Semi-major axis
7,066.975 km
Eccentricity
0.00316
Inclination
74.0622°
RAAN
27.3079°
Arg. of periapsis
1.4107°
True anomaly
358.70605°
Mean anomaly
358.7142°
Eccentric anomaly
358.71013°
Mean motion
3.65336 °/min
Orbital period
98.54 mins
BSTAR
0.00122
Loading maneuver chart data...
Computing Atmospheric mass density...

Documentation

Showing up to 5 results
|